Date String (YYYY-MM-DD hh:mm:ss) UTC,Instrument flags,Ambient pressure (hPa),Sample flow (lpm),Bypass flow (lpm),Sample temperature (°C),Ambient temperature (°C),ASC tube jacket temperature (°C),LED temperature (°C),Box temperature (°C),Sample RH (%),Span deviation,Mass concentration (μg/m³),Mass concentration (μg/m³),Mass concentration (μg/m³)
DateTimeUTC,F1_M11,P_M11,Q1_M11,Q2_M11,T1_M11,T2_M11,T3_M11,T4_M11,T5_M11,U1_M11,ZSPAN_M11,X0_M11,X2_M11,X1_M11
2022-06-25 07:00:00,,0827.7,5.01,0.00,29.8,27.5,00.0,38.6,31.4,17.6,0000.0,0007.51,0002.85,0001.87
2022-06-25 07:01:00,,0827.7,5.00,0.00,29.7,27.5,00.0,38.6,31.4,17.5,0000.0,0007.39,0002.81,0001.85
2022-06-25 07:02:00,,0827.7,5.00,0.00,29.7,27.5,00.0,38.6,31.3,17.6,0000.0,0007.22,0002.71,0001.83
2022-06-25 07:03:00,,0827.7,5.01,0.00,29.6,27.7,00.0,38.5,31.3,17.7,0000.0,0006.90,0002.72,0001.83
2022-06-25 07:04:00,,0827.7,5.01,0.00,29.6,27.8,00.0,38.5,31.4,17.6,0000.0,0006.15,0002.76,0001.84
2022-06-25 07:05:00,,0827.7,4.99,0.00,29.6,27.9,00.0,38.5,31.4,17.5,0000.0,0006.00,0002.71,0001.83
2022-06-25 07:06:00,,0827.8,5.00,0.00,29.6,28.0,00.0,38.5,31.4,17.7,0000.0,0004.82,0002.63,0001.80
2022-06-25 07:07:00,,0827.7,5.00,0.00,29.6,28.1,00.0,38.5,31.4,17.9,0000.0,0004.64,0002.66,0001.80
2022-06-25 07:08:00,,0827.7,5.00,0.00,29.6,28.2,00.0,38.5,31.4,17.9,0000.0,0004.62,0002.63,0001.81
2022-06-25 07:09:00,,0827.8,4.99,0.00,29.6,28.3,00.0,38.5,31.4,17.7,0000.0,0004.75,0002.65,0001.82
2022-06-25 07:10:00,,0827.7,5.01,0.00,29.6,28.4,00.0,38.5,31.5,17.4,0000.0,0004.58,0002.57,0001.82
2022-06-25 07:11:00,,0827.8,4.99,0.00,29.6,28.4,00.0,38.5,31.5,17.3,0000.0,0004.45,0002.58,0001.83
2022-06-25 07:12:00,,0827.8,5.00,0.00,29.7,28.5,00.0,38.5,31.5,17.2,0000.0,0004.43,0002.55,0001.83
2022-06-25 07:13:00,,0827.8,4.99,0.00,29.7,28.5,00.0,38.5,31.5,17.1,0000.0,0004.53,0002.59,0001.82
2022-06-25 07:14:00,,0827.8,5.01,0.00,29.7,28.6,00.0,38.5,31.6,17.1,0000.0,0004.54,0002.60,0001.83
2022-06-25 07:15:00,,0827.8,5.00,0.00,29.7,28.6,00.0,38.5,31.6,17.1,0000.0,0004.38,0002.58,0001.82
2022-06-25 07:16:00,,0827.8,5.00,0.00,29.7,28.7,00.0,38.5,31.6,17.1,0000.0,0004.45,0002.57,0001.81
2022-06-25 07:17:00,,0827.7,4.99,0.00,29.7,28.7,00.0,38.5,31.6,17.1,0000.0,0005.15,0002.58,0001.80
2022-06-25 07:18:00,,0827.8,5.01,0.00,29.8,28.8,00.0,38.6,31.7,17.1,0000.0,0005.25,0002.61,0001.79
2022-06-25 07:19:00,,0827.8,5.00,0.00,29.8,28.8,00.0,38.6,31.7,17.0,0000.0,0005.32,0002.62,0001.78
2022-06-25 07:20:00,,0827.9,4.99,0.00,29.8,28.8,00.0,38.6,31.7,16.9,0000.0,0005.28,0002.63,0001.77
2022-06-25 07:21:00,,0827.9,5.00,0.00,29.8,28.8,00.0,38.6,31.7,16.8,0000.0,0005.20,0002.62,0001.77
2022-06-25 07:22:00,,0827.9,5.00,0.00,29.8,28.9,00.0,38.6,31.7,16.8,0000.0,0005.21,0002.61,0001.76
2022-06-25 07:23:00,,0827.9,5.00,0.00,29.8,28.9,00.0,38.6,31.7,16.7,0000.0,0005.28,0002.66,0001.76
2022-06-25 07:24:00,,0827.9,5.01,0.00,29.9,28.9,00.0,38.6,31.7,16.6,0000.0,0005.39,0002.67,0001.77
2022-06-25 07:25:00,,0827.9,5.00,0.00,29.9,29.0,00.0,38.7,31.7,16.6,0000.0,0005.43,0002.67,0001.77
2022-06-25 07:26:00,,0827.9,5.00,0.00,29.9,29.0,00.0,38.7,31.8,16.6,0000.0,0005.56,0002.69,0001.76
2022-06-25 07:27:00,,0827.8,5.01,0.00,29.9,29.0,00.0,38.7,31.8,16.6,0000.0,0005.42,0002.66,0001.76
2022-06-25 07:28:00,,0827.8,5.00,0.00,29.9,29.0,00.0,38.7,31.9,16.6,0000.0,0004.97,0002.70,0001.78
2022-06-25 07:29:00,,0827.9,4.99,0.00,30.0,29.0,00.0,38.7,31.9,16.6,0000.0,0004.82,0002.70,0001.79
2022-06-25 07:30:00,,0827.9,4.99,0.00,30.0,29.1,00.0,38.7,31.9,16.6,0000.0,0004.88,0002.72,0001.78
2022-06-25 07:31:00,,0827.9,5.01,0.00,30.0,29.1,00.0,38.8,31.9,16.6,0000.0,0004.74,0002.68,0001.78
2022-06-25 07:32:00,,0827.9,4.99,0.00,30.0,28.7,00.0,38.7,31.8,16.7,0000.0,0005.16,0002.78,0001.79
2022-06-25 07:33:00,,0827.9,5.00,0.00,29.9,27.9,00.0,38.7,31.6,16.7,0000.0,0005.88,0002.83,0001.79
2022-06-25 07:34:00,,0827.9,5.00,0.00,29.8,27.6,00.0,38.6,31.5,16.6,0000.0,0005.73,0002.77,0001.79
2022-06-25 07:35:00,,0827.9,5.01,0.00,29.8,27.6,00.0,38.6,31.4,16.4,0000.0,0005.56,0002.74,0001.77
2022-06-25 07:36:00,,0827.9,5.01,0.00,29.7,27.6,00.0,38.6,31.4,16.7,0000.0,0005.38,0002.67,0001.75
2022-06-25 07:37:00,,0827.9,5.00,0.00,29.7,27.7,00.0,38.6,31.4,16.8,0000.0,0005.19,0002.63,0001.74
2022-06-25 07:38:00,,0827.9,4.99,0.00,29.7,27.8,00.0,38.6,31.4,16.9,0000.0,0005.18,0002.63,0001.74
2022-06-25 07:39:00,,0827.9,4.98,0.00,29.6,27.9,00.0,38.5,31.4,17.0,0000.0,0005.72,0002.61,0001.73
2022-06-25 07:40:00,,0827.9,5.00,0.00,29.6,28.0,00.0,38.5,31.4,17.1,0000.0,0005.96,0002.55,0001.71
2022-06-25 07:41:00,,0827.9,5.01,0.00,29.6,28.1,00.0,38.5,31.4,17.3,0000.0,0005.80,0002.50,0001.70
2022-06-25 07:42:00,,0827.8,5.00,0.00,29.6,28.2,00.0,38.5,31.5,17.2,0000.0,0005.89,0002.52,0001.69
2022-06-25 07:43:00,,0827.9,5.00,0.00,29.6,28.3,00.0,38.5,31.5,17.4,0000.0,0005.59,0002.45,0001.68
2022-06-25 07:44:00,,0827.8,4.99,0.00,29.6,28.3,00.0,38.5,31.5,17.3,0000.0,0004.92,0002.40,0001.69
2022-06-25 07:45:00,,0827.7,4.99,0.00,29.7,28.4,00.0,38.5,31.5,16.9,0000.0,0005.00,0002.41,0001.68
2022-06-25 07:46:00,,0827.8,5.01,0.00,29.7,28.4,00.0,38.5,31.5,16.9,0000.0,0004.99,0002.40,0001.68
2022-06-25 07:47:00,,0827.8,5.00,0.00,29.7,28.5,00.0,38.5,31.6,17.0,0000.0,0005.12,0002.45,0001.68
2022-06-25 07:48:00,,0827.8,4.98,0.00,29.7,28.5,00.0,38.5,31.6,17.2,0000.0,0005.28,0002.51,0001.69
2022-06-25 07:49:00,,0827.8,5.01,0.00,29.7,28.6,00.0,38.5,31.6,17.1,0000.0,0005.28,0002.50,0001.69
2022-06-25 07:50:00,,0827.8,5.01,0.00,29.7,28.6,00.0,38.5,31.6,17.1,0000.0,0004.92,0002.52,0001.70
2022-06-25 07:51:00,,0827.8,5.00,0.00,29.7,28.6,00.0,38.5,31.6,17.0,0000.0,0004.50,0002.58,0001.71
2022-06-25 07:52:00,,0827.8,5.00,0.00,29.7,28.7,00.0,38.5,31.6,16.9,0000.0,0004.51,0002.59,0001.71
2022-06-25 07:53:00,,0827.8,5.00,0.00,29.8,28.7,00.0,38.6,31.7,16.8,0000.0,0004.50,0002.59,0001.71
2022-06-25 07:54:00,,0827.9,5.01,0.00,29.8,28.7,00.0,38.6,31.7,17.3,0000.0,0004.51,0002.58,0001.71
2022-06-25 07:55:00,,0827.9,5.00,0.00,29.8,28.7,00.0,38.6,31.7,16.8,0000.0,0004.47,0002.55,0001.68
2022-06-25 07:56:00,,0827.9,5.00,0.00,29.8,28.7,00.0,38.6,31.7,17.1,0000.0,0004.52,0002.56,0001.68
2022-06-25 07:57:00,,0827.9,5.00,0.00,29.8,28.8,00.0,38.6,31.7,17.1,0000.0,0004.58,0002.61,0001.70
2022-06-25 07:58:00,,0827.9,5.00,0.00,29.8,28.8,00.0,38.6,31.7,17.2,0000.0,0004.48,0002.57,0001.72
2022-06-25 07:59:00,,0827.9,5.00,0.00,29.8,28.8,00.0,38.6,31.7,17.1,0000.0,0004.43,0002.56,0001.73
